User: anonymous   Login
Location: Unspecified
(43.4354°N, 0.0000°E)
Time: 07:25:41
(UTC+00:00)
Language:

AO-7 - Orbit

View from above orbital plane
View from above orbital plane
View from above satellite
View from above satellite

Ground track
Ground track

The orbit data is extracted from the following two-line orbital elements,

1  7530U 74089B   19202.90225800 -.00000032 +00000-0 +80947-4 0  9991
2  7530 101.7458 170.2259 0011761 284.2983 133.2909 12.53638925044448
Epoch (UTC): 21 July 2019 21:39:15
Eccentricity: 0.0011761
inclination: 101.7458°
perigee height: 1440 km
apogee height: 1458 km
right ascension of ascending node: 170.2259°
argument of perigee: 284.2983°
revolutions per day: 12.53638925
mean anomaly at epoch: 133.2909°
orbit number at epoch: 4444

The dashed part of the orbit path shows where the satellite is in the earth's shadow,  

DLR